User: anonymous   Login
Location: Granada
(37.1830°N, 3.6000°W)
Time: 21:16:40
(UTC+02:00)
Language:

Iridium 70 - Orbit

View from above orbital plane
View from above orbital plane
View from above satellite
View from above satellite

Ground track
Ground track

The orbit data is extracted from the following two-line orbital elements,

1 25342U 98032A   16125.31660638  .00000250  00000-0  82063-4 0  9996
2 25342  86.4004  35.1593 0002032  82.9214  33.6262 14.34217066940491
Epoch (UTC): 04 May 2016 07:35:54
Eccentricity: 0.0002032
inclination: 86.4004°
perigee height: 776 km
apogee height: 779 km
right ascension of ascending node: 35.1593°
argument of perigee: 82.9214°
revolutions per day: 14.34217066
mean anomaly at epoch: 33.6262°
orbit number at epoch: 94049

The dashed part of the orbit path shows where the satellite is in the earth's shadow,  

DLR